TimeEDT,TemperatureF,Dew PointF,Humidity,Sea Level PressureIn,VisibilityMPH,Wind Direction,Wind SpeedMPH,Gust SpeedMPH,PrecipitationIn,Events,Conditions,WindDirDegrees,DateUTC
12:51 AM,80.1,72.0,76,30.09,10.0,Calm,Calm,-,N/A,,Clear,0,2013-07-19 04:51:00
1:51 AM,79.0,72.0,79,30.08,10.0,Calm,Calm,-,N/A,,Clear,0,2013-07-19 05:51:00
2:51 AM,78.1,72.0,81,30.07,10.0,Calm,Calm,-,N/A,,Clear,0,2013-07-19 06:51:00
3:51 AM,75.9,72.0,87,30.06,9.0,Calm,Calm,-,N/A,,Clear,0,2013-07-19 07:51:00
4:51 AM,75.9,72.0,87,30.05,8.0,Calm,Calm,-,N/A,,Clear,0,2013-07-19 08:51:00
5:51 AM,75.0,71.1,87,30.05,8.0,Calm,Calm,-,N/A,,Clear,0,2013-07-19 09:51:00
6:51 AM,75.0,71.1,87,30.07,6.0,East,3.5,-,N/A,,Clear,80,2013-07-19 10:51:00
7:51 AM,77.0,71.1,82,30.08,7.0,ENE,3.5,-,N/A,,Clear,70,2013-07-19 11:51:00
8:51 AM,80.1,72.0,76,30.10,9.0,Calm,Calm,-,N/A,,Clear,0,2013-07-19 12:51:00
9:51 AM,82.9,73.0,72,30.11,10.0,Calm,Calm,-,N/A,,Clear,0,2013-07-19 13:51:00
10:51 AM,87.1,71.1,59,30.10,10.0,Calm,Calm,-,N/A,,Scattered Clouds,0,2013-07-19 14:51:00
11:51 AM,88.0,69.1,53,30.09,10.0,Calm,Calm,-,N/A,,Mostly Cloudy,0,2013-07-19 15:51:00
12:51 PM,89.1,66.0,46,30.08,10.0,Calm,Calm,-,N/A,,Mostly Cloudy,0,2013-07-19 16:51:00
1:51 PM,91.9,64.9,41,30.05,10.0,Calm,Calm,-,N/A,,Mostly Cloudy,0,2013-07-19 17:51:00
2:51 PM,91.9,66.9,44,30.03,10.0,West,4.6,-,N/A,,Mostly Cloudy,260,2013-07-19 18:51:00
3:51 PM,90.0,64.9,43,30.00,10.0,Calm,Calm,-,N/A,,Mostly Cloudy,0,2013-07-19 19:51:00
4:51 PM,89.1,66.9,48,29.99,10.0,Calm,Calm,-,N/A,,Mostly Cloudy,0,2013-07-19 20:51:00
5:51 PM,90.0,66.9,46,29.98,10.0,ESE,4.6,-,N/A,,Clear,120,2013-07-19 21:51:00
6:51 PM,90.0,66.9,46,29.96,10.0,SE,4.6,-,N/A,,Clear,140,2013-07-19 22:51:00
7:51 PM,82.0,70.0,67,29.99,10.0,South,10.4,-,0.00,,Mostly Cloudy,190,2013-07-19 23:51:00
8:51 PM,79.0,71.1,77,29.99,10.0,Calm,Calm,-,0.00,,Overcast,0,2013-07-20 00:51:00
9:51 PM,79.0,72.0,79,30.00,10.0,Calm,Calm,-,N/A,,Mostly Cloudy,0,2013-07-20 01:51:00
10:51 PM,78.1,71.1,79,30.03,10.0,SW,4.6,-,N/A,,Clear,220,2013-07-20 02:51:00
11:51 PM,77.0,71.1,82,30.04,10.0,SSW,5.8,-,N/A,,Clear,200,2013-07-20 03:51:00